User: anonymous   Login
Location: Unspecified
(0.0000°N, 0.0000°E)
Time: 04:06:29
(UTC+00:00)
Language:

CASSIOPE - Orbit

View from above orbital plane
View from above orbital plane
View from above satellite
View from above satellite

Ground track
Ground track

The orbit data is extracted from the following two-line orbital elements,

1 39265U 13055A   19083.16515358  .00002026  00000-0  57163-4 0  9990
2 39265  80.9675  65.3067 0670587 179.6533 180.5268 14.27047495283372
Epoch (UTC): 24 March 2019 03:57:49
Eccentricity: 0.0670587
inclination: 80.9675°
perigee height: 320 km
apogee height: 1283 km
right ascension of ascending node: 65.3067°
argument of perigee: 179.6533°
revolutions per day: 14.27047495
mean anomaly at epoch: 180.5268°
orbit number at epoch: 28337

The dashed part of the orbit path shows where the satellite is in the earth's shadow,  

DLR